Time,TemperatureF,DewpointF,PressureIn,WindDirection,WindDirectionDegrees,WindSpeedMPH,WindSpeedGustMPH,Humidity,HourlyPrecipIn,Conditions,Clouds,dailyrainin,SolarRadiationWatts/m^2,SoftwareType,DateUTC
2013-01-16 00:03:00,42.0,42.0,29.65,North,7,2.0,6.0,100,0.00,,,0.07,0.000000,,2013-01-16 05:03:00,
2013-01-16 00:12:00,42.0,42.0,29.65,North,7,2.0,6.0,100,0.00,,,0.07,0.000000,,2013-01-16 05:12:00,
2013-01-16 00:33:00,43.0,43.0,29.63,ENE,70,3.0,8.0,100,0.00,,,0.07,0.000000,,2013-01-16 05:33:00,
2013-01-16 00:42:00,43.0,43.0,29.63,ENE,70,3.0,8.0,100,0.00,,,0.07,0.000000,,2013-01-16 05:42:00,
2013-01-16 00:53:00,43.0,43.0,29.63,ENE,70,3.0,8.0,100,0.00,,,0.07,0.000000,,2013-01-16 05:53:00,
2013-01-16 01:03:00,43.0,43.0,29.63,ENE,70,3.0,8.0,100,0.00,,,0.07,0.000000,,2013-01-16 06:03:00,
2013-01-16 01:12:00,43.0,43.0,29.63,ENE,70,3.0,8.0,100,0.00,,,0.07,0.000000,,2013-01-16 06:12:00,
2013-01-16 01:33:00,42.0,42.0,29.62,East,82,3.0,6.0,100,0.01,,,0.08,0.000000,,2013-01-16 06:33:00,
2013-01-16 01:43:00,42.0,42.0,29.62,East,82,3.0,6.0,100,0.01,,,0.08,0.000000,,2013-01-16 06:43:00,
2013-01-16 01:53:00,42.0,42.0,29.62,East,82,3.0,6.0,100,0.01,,,0.08,0.000000,,2013-01-16 06:53:00,
2013-01-16 02:02:00,42.0,42.0,29.62,East,82,3.0,6.0,100,0.01,,,0.08,0.000000,,2013-01-16 07:02:00,
2013-01-16 02:12:00,42.0,42.0,29.62,East,82,3.0,6.0,100,0.01,,,0.08,0.000000,,2013-01-16 07:12:00,
2013-01-16 02:33:00,42.0,42.0,29.63,NNE,20,3.0,9.0,100,0.00,,,0.07,0.000000,,2013-01-16 07:33:00,
2013-01-16 02:42:00,42.0,42.0,29.63,NNE,20,3.0,9.0,100,0.00,,,0.07,0.000000,,2013-01-16 07:42:00,
2013-01-16 02:52:00,42.0,42.0,29.63,NNE,20,3.0,9.0,100,0.00,,,0.07,0.000000,,2013-01-16 07:52:00,
2013-01-16 03:03:00,42.0,42.0,29.63,NNE,20,3.0,9.0,100,0.00,,,0.07,0.000000,,2013-01-16 08:03:00,
2013-01-16 03:12:00,42.0,42.0,29.63,NNE,20,3.0,9.0,100,0.00,,,0.07,0.000000,,2013-01-16 08:12:00,
2013-01-16 03:42:00,42.0,42.0,29.62,NNE,12,3.0,7.0,100,0.00,,,0.05,0.000000,,2013-01-16 08:42:00,
2013-01-16 03:53:00,42.0,42.0,29.62,NNE,12,3.0,7.0,100,0.00,,,0.05,0.000000,,2013-01-16 08:53:00,
2013-01-16 04:02:00,42.0,42.0,29.62,NNE,12,3.0,7.0,100,0.00,,,0.05,0.000000,,2013-01-16 09:02:00,
2013-01-16 04:12:00,42.0,42.0,29.62,NNE,12,3.0,7.0,100,0.00,,,0.05,0.000000,,2013-01-16 09:12:00,
2013-01-16 04:33:00,43.0,43.0,29.61,North,6,5.0,9.0,100,0.00,,,0.04,0.000000,,2013-01-16 09:33:00,
2013-01-16 04:43:00,43.0,43.0,29.61,North,6,5.0,9.0,100,0.00,,,0.04,0.000000,,2013-01-16 09:43:00,
2013-01-16 04:53:00,43.0,43.0,29.61,North,6,5.0,9.0,100,0.00,,,0.04,0.000000,,2013-01-16 09:53:00,
2013-01-16 05:03:00,43.0,43.0,29.61,North,6,5.0,9.0,100,0.00,,,0.04,0.000000,,2013-01-16 10:03:00,
2013-01-16 05:12:00,43.0,43.0,29.61,North,6,5.0,9.0,100,0.00,,,0.04,0.000000,,2013-01-16 10:12:00,
2013-01-16 05:33:00,42.0,42.0,29.61,North,350,5.0,11.0,100,0.02,,,0.05,0.000000,,2013-01-16 10:33:00,
2013-01-16 05:43:00,42.0,42.0,29.61,North,350,5.0,11.0,100,0.02,,,0.05,0.000000,,2013-01-16 10:43:00,
2013-01-16 05:53:00,42.0,42.0,29.61,North,350,5.0,11.0,100,0.02,,,0.05,0.000000,,2013-01-16 10:53:00,
2013-01-16 06:02:00,42.0,42.0,29.61,North,350,5.0,11.0,100,0.02,,,0.05,0.000000,,2013-01-16 11:02:00,
2013-01-16 06:12:00,42.0,42.0,29.61,North,350,5.0,11.0,100,0.02,,,0.05,0.000000,,2013-01-16 11:12:00,
2013-01-16 06:33:00,41.0,41.0,29.59,North,4,2.0,8.0,100,0.03,,,0.08,0.000000,,2013-01-16 11:33:00,
2013-01-16 06:43:00,41.0,41.0,29.59,North,4,2.0,8.0,100,0.03,,,0.08,0.000000,,2013-01-16 11:43:00,
2013-01-16 06:53:00,41.0,41.0,29.59,North,4,2.0,8.0,100,0.03,,,0.08,0.000000,,2013-01-16 11:53:00,
2013-01-16 07:03:00,41.0,41.0,29.59,North,4,2.0,8.0,100,0.03,,,0.08,0.000000,,2013-01-16 12:03:00,
2013-01-16 07:13:00,41.0,41.0,29.59,North,4,2.0,8.0,100,0.03,,,0.08,0.000000,,2013-01-16 12:13:00,
2013-01-16 07:33:00,41.0,41.0,29.60,NNE,14,2.0,6.0,100,0.00,,,0.08,0.000000,,2013-01-16 12:33:00,
2013-01-16 07:43:00,41.0,41.0,29.60,NNE,14,2.0,6.0,100,0.00,,,0.08,0.000000,,2013-01-16 12:43:00,
2013-01-16 07:53:00,41.0,41.0,29.60,NNE,14,2.0,6.0,100,0.00,,,0.08,0.000000,,2013-01-16 12:53:00,
2013-01-16 08:03:00,41.0,41.0,29.60,NNE,14,2.0,6.0,100,0.00,,,0.08,0.000000,,2013-01-16 13:03:00,
2013-01-16 08:12:00,41.0,41.0,29.60,NNE,14,2.0,6.0,100,0.00,,,0.08,0.000000,,2013-01-16 13:12:00,
2013-01-16 08:43:00,41.0,41.0,29.61,NE,56,2.0,6.0,100,0.01,,,0.09,4.000000,,2013-01-16 13:43:00,
2013-01-16 08:53:00,41.0,41.0,29.61,NE,56,2.0,6.0,100,0.01,,,0.09,4.000000,,2013-01-16 13:53:00,
2013-01-16 09:03:00,41.0,41.0,29.61,NE,56,2.0,6.0,100,0.01,,,0.09,4.000000,,2013-01-16 14:03:00,
2013-01-16 09:12:00,41.0,41.0,29.61,NE,56,2.0,6.0,100,0.01,,,0.09,4.000000,,2013-01-16 14:12:00,
2013-01-16 09:33:00,42.0,42.0,29.62,NE,53,2.0,6.0,100,0.00,,,0.09,20.000000,,2013-01-16 14:33:00,
2013-01-16 09:43:00,42.0,42.0,29.62,NE,53,2.0,6.0,100,0.00,,,0.09,20.000000,,2013-01-16 14:43:00,
2013-01-16 09:53:00,42.0,42.0,29.62,NE,53,2.0,6.0,100,0.00,,,0.09,20.000000,,2013-01-16 14:53:00,
2013-01-16 10:03:00,42.0,42.0,29.62,NE,53,2.0,6.0,100,0.00,,,0.09,20.000000,,2013-01-16 15:03:00,
2013-01-16 10:12:00,42.0,42.0,29.62,NE,53,2.0,6.0,100,0.00,,,0.09,20.000000,,2013-01-16 15:12:00,
2013-01-16 10:43:00,41.0,41.0,29.62,NE,35,2.0,6.0,100,0.00,,,0.09,42.000000,,2013-01-16 15:43:00,
2013-01-16 10:53:00,41.0,41.0,29.62,NE,35,2.0,6.0,100,0.00,,,0.09,42.000000,,2013-01-16 15:53:00,
2013-01-16 11:04:00,41.0,41.0,29.62,NE,35,2.0,6.0,100,0.00,,,0.09,42.000000,,2013-01-16 16:04:00,
2013-01-16 11:12:00,41.0,41.0,29.62,NE,35,2.0,6.0,100,0.00,,,0.09,42.000000,,2013-01-16 16:12:00,
2013-01-16 11:33:00,43.0,43.0,29.63,NNW,338,5.0,14.0,100,0.00,,,0.09,39.000000,,2013-01-16 16:33:00,
2013-01-16 11:43:00,43.0,43.0,29.63,NNW,338,5.0,14.0,100,0.00,,,0.09,39.000000,,2013-01-16 16:43:00,
2013-01-16 11:53:00,43.0,43.0,29.63,NNW,338,5.0,14.0,100,0.00,,,0.09,39.000000,,2013-01-16 16:53:00,
2013-01-16 12:03:00,43.0,43.0,29.63,NNW,338,5.0,14.0,100,0.00,,,0.09,39.000000,,2013-01-16 17:03:00,
2013-01-16 12:12:00,43.0,43.0,29.63,NNW,338,5.0,14.0,100,0.00,,,0.09,39.000000,,2013-01-16 17:12:00,
2013-01-16 12:33:00,41.0,41.0,29.61,North,351,4.0,13.0,100,0.03,,,0.12,53.000000,,2013-01-16 17:33:00,
2013-01-16 12:44:00,41.0,41.0,29.61,North,351,4.0,13.0,100,0.03,,,0.12,53.000000,,2013-01-16 17:44:00,
2013-01-16 12:53:00,41.0,41.0,29.61,North,351,4.0,13.0,100,0.03,,,0.12,53.000000,,2013-01-16 17:53:00,
2013-01-16 13:03:00,41.0,41.0,29.61,North,351,4.0,13.0,100,0.03,,,0.12,53.000000,,2013-01-16 18:03:00,
2013-01-16 13:13:00,41.0,41.0,29.61,North,351,4.0,13.0,100,0.03,,,0.12,53.000000,,2013-01-16 18:13:00,
2013-01-16 13:33:00,44.0,44.0,29.57,SSE,149,3.0,8.0,100,0.08,,,0.20,62.000000,,2013-01-16 18:33:00,
2013-01-16 13:43:00,44.0,44.0,29.57,SSE,149,3.0,8.0,100,0.08,,,0.20,62.000000,,2013-01-16 18:43:00,
2013-01-16 13:53:00,44.0,44.0,29.57,SSE,149,3.0,8.0,100,0.08,,,0.20,62.000000,,2013-01-16 18:53:00,
2013-01-16 14:03:00,44.0,44.0,29.57,SSE,149,3.0,8.0,100,0.08,,,0.20,62.000000,,2013-01-16 19:03:00,
2013-01-16 14:13:00,44.0,44.0,29.57,SSE,149,3.0,8.0,100,0.08,,,0.20,62.000000,,2013-01-16 19:13:00,
2013-01-16 14:33:00,46.0,46.0,29.55,SSW,202,2.0,8.0,100,0.01,,,0.21,108.000000,,2013-01-16 19:33:00,
2013-01-16 14:43:00,46.0,46.0,29.55,SSW,202,2.0,8.0,100,0.01,,,0.21,108.000000,,2013-01-16 19:43:00,
2013-01-16 14:53:00,46.0,46.0,29.55,SSW,202,2.0,8.0,100,0.01,,,0.21,108.000000,,2013-01-16 19:53:00,
2013-01-16 15:03:00,46.0,46.0,29.55,SSW,202,2.0,8.0,100,0.01,,,0.21,108.000000,,2013-01-16 20:03:00,
2013-01-16 15:12:00,46.0,46.0,29.55,SSW,202,2.0,8.0,100,0.01,,,0.21,108.000000,,2013-01-16 20:12:00,
2013-01-16 15:43:00,46.0,46.0,29.56,SSE,166,3.0,7.0,100,0.00,,,0.21,98.000000,,2013-01-16 20:43:00,
2013-01-16 15:53:00,46.0,46.0,29.56,SSE,166,3.0,7.0,100,0.00,,,0.21,98.000000,,2013-01-16 20:53:00,
2013-01-16 16:03:00,46.0,46.0,29.56,SSE,166,3.0,7.0,100,0.00,,,0.21,98.000000,,2013-01-16 21:03:00,
2013-01-16 16:12:00,46.0,46.0,29.56,SSE,166,3.0,7.0,100,0.00,,,0.21,98.000000,,2013-01-16 21:12:00,
2013-01-16 16:43:00,48.0,48.0,29.57,SSW,198,2.0,6.0,100,0.00,,,0.21,58.000000,,2013-01-16 21:43:00,
2013-01-16 16:53:00,48.0,48.0,29.57,SSW,198,2.0,6.0,100,0.00,,,0.21,58.000000,,2013-01-16 21:53:00,
2013-01-16 17:03:00,48.0,48.0,29.57,SSW,198,2.0,6.0,100,0.00,,,0.21,58.000000,,2013-01-16 22:03:00,
2013-01-16 17:12:00,48.0,48.0,29.57,SSW,198,2.0,6.0,100,0.00,,,0.21,58.000000,,2013-01-16 22:12:00,
2013-01-16 17:33:00,47.0,47.0,29.56,South,188,3.0,7.0,100,0.00,,,0.21,32.000000,,2013-01-16 22:33:00,
2013-01-16 17:43:00,47.0,47.0,29.56,South,188,3.0,7.0,100,0.00,,,0.21,32.000000,,2013-01-16 22:43:00,
2013-01-16 17:53:00,47.0,47.0,29.56,South,188,3.0,7.0,100,0.00,,,0.21,32.000000,,2013-01-16 22:53:00,
2013-01-16 18:03:00,47.0,47.0,29.56,South,188,3.0,7.0,100,0.00,,,0.21,32.000000,,2013-01-16 23:03:00,
2013-01-16 18:12:00,47.0,47.0,29.56,South,188,3.0,7.0,100,0.00,,,0.21,32.000000,,2013-01-16 23:12:00,
2013-01-16 18:33:00,49.0,49.0,29.57,West,262,2.0,8.0,100,0.00,,,0.20,1.000000,,2013-01-16 23:33:00,
2013-01-16 18:43:00,49.0,49.0,29.57,West,262,2.0,8.0,100,0.00,,,0.20,1.000000,,2013-01-16 23:43:00,
2013-01-16 18:53:00,49.0,49.0,29.57,West,262,2.0,8.0,100,0.00,,,0.20,1.000000,,2013-01-16 23:53:00,
2013-01-16 19:03:00,49.0,49.0,29.57,West,262,2.0,8.0,100,0.00,,,0.20,1.000000,,2013-01-17 00:03:00,
2013-01-16 19:12:00,49.0,49.0,29.57,West,262,2.0,8.0,100,0.00,,,0.20,1.000000,,2013-01-17 00:12:00,
2013-01-16 19:33:00,49.0,49.0,29.58,WSW,241,3.0,6.0,100,0.00,,,0.20,0.000000,,2013-01-17 00:33:00,
2013-01-16 19:42:00,49.0,49.0,29.58,WSW,241,3.0,6.0,100,0.00,,,0.20,0.000000,,2013-01-17 00:42:00,
2013-01-16 19:53:00,49.0,49.0,29.58,WSW,241,3.0,6.0,100,0.00,,,0.20,0.000000,,2013-01-17 00:53:00,
2013-01-16 20:02:00,49.0,49.0,29.58,WSW,241,3.0,6.0,100,0.00,,,0.20,0.000000,,2013-01-17 01:02:00,
2013-01-16 20:12:00,49.0,49.0,29.58,WSW,241,3.0,6.0,100,0.00,,,0.20,0.000000,,2013-01-17 01:12:00,
2013-01-16 20:33:00,49.0,49.0,29.57,SW,229,2.0,7.0,100,0.00,,,0.20,0.000000,,2013-01-17 01:33:00,
2013-01-16 20:43:00,49.0,49.0,29.57,SW,229,2.0,7.0,100,0.00,,,0.20,0.000000,,2013-01-17 01:43:00,
2013-01-16 20:53:00,49.0,49.0,29.57,SW,229,2.0,7.0,100,0.00,,,0.20,0.000000,,2013-01-17 01:53:00,
2013-01-16 21:02:00,49.0,49.0,29.57,SW,229,2.0,7.0,100,0.00,,,0.20,0.000000,,2013-01-17 02:02:00,
2013-01-16 21:12:00,49.0,49.0,29.57,SW,229,2.0,7.0,100,0.00,,,0.20,0.000000,,2013-01-17 02:12:00,
2013-01-16 21:32:00,49.0,49.0,29.57,NW,304,2.0,4.0,100,0.00,,,0.20,0.000000,,2013-01-17 02:32:00,
2013-01-16 21:43:00,49.0,49.0,29.57,NW,304,2.0,4.0,100,0.00,,,0.20,0.000000,,2013-01-17 02:43:00,
2013-01-16 21:52:00,49.0,49.0,29.57,NW,304,2.0,4.0,100,0.00,,,0.20,0.000000,,2013-01-17 02:52:00,
2013-01-16 22:03:00,49.0,49.0,29.57,NW,304,2.0,4.0,100,0.00,,,0.20,0.000000,,2013-01-17 03:03:00,
2013-01-16 22:12:00,49.0,49.0,29.57,NW,304,2.0,4.0,100,0.00,,,0.20,0.000000,,2013-01-17 03:12:00,
2013-01-16 22:33:00,48.0,48.0,29.56,NW,304,2.0,3.0,100,0.00,,,0.19,0.000000,,2013-01-17 03:33:00,
2013-01-16 22:43:00,48.0,48.0,29.56,NW,304,2.0,3.0,100,0.00,,,0.19,0.000000,,2013-01-17 03:43:00,
2013-01-16 22:53:00,48.0,48.0,29.56,NW,304,2.0,3.0,100,0.00,,,0.19,0.000000,,2013-01-17 03:53:00,
2013-01-16 23:02:00,48.0,48.0,29.56,NW,304,2.0,3.0,100,0.00,,,0.19,0.000000,,2013-01-17 04:02:00,
2013-01-16 23:12:00,48.0,48.0,29.56,NW,304,2.0,3.0,100,0.00,,,0.19,0.000000,,2013-01-17 04:12:00,
2013-01-16 23:33:00,48.0,48.0,29.55,SSE,166,3.0,4.0,100,0.00,,,0.19,0.000000,,2013-01-17 04:33:00,
2013-01-16 23:43:00,48.0,48.0,29.55,SSE,166,3.0,4.0,100,0.00,,,0.19,0.000000,,2013-01-17 04:43:00,
2013-01-16 23:53:00,48.0,48.0,29.55,SSE,166,3.0,4.0,100,0.00,,,0.19,0.000000,,2013-01-17 04:53:00,